FW7031 Weather Reports


time (UTC)temp
C
wind
direction
speed
KPH
gust
KPH
rain 1hr
cm
rain 24hr
cm
rain mn
cm
humidity
%
barometer
mb
20260906213435 30 134 14.5 33.8 0.00 0.00 0.00 32 1021.4
20260906211937 29 130 16.1 33.8 0.00 0.00 0.00 33 1021.5
20260906210435 29 117 12.9 27.4 0.00 0.00 0.00 33 1021.5
20260906204935 30 154 11.3 29.0 0.00 0.00 0.00 34 1022.0
20260906204134 29 106 16.1 29.0 0.00 0.00 0.00 35 1022.1
20260906201933 30 134 14.5 29.0 0.00 0.00 0.00 35 1022.1
20260906200433 30 158 11.3 20.9 0.00 0.00 0.00 35 1022.4
20260906194933 30 129 14.5 29.0 0.00 0.00 0.00 33 1022.3
20260906193434 29 236 11.3 25.7 0.00 0.00 0.00 33 1022.4
20260906191933 29 165 14.5 29.0 0.00 0.00 0.00 33 1022.5
20260906190433 29 128 11.3 25.7 0.00 0.00 0.00 33 1022.9
20260906185630 28 136 9.7 20.9 0.00 0.00 0.00 33 1023.1
20260906183431 28 129 6.4 20.9 0.00 0.00 0.00 34 1023.6
20260906181931 28 130 8.0 19.3 0.00 0.00 0.00 36 1024.0
20260906180430 28 179 8.0 22.5 0.00 0.00 0.00 36 1024.2
20260906174931 27 256 4.8 20.9 0.00 0.00 0.00 37 1024.2
20260906173429 27 227 8.0 19.3 0.00 0.00 0.00 37 1024.5
20260906172619 27 137 8.0 22.5 0.00 0.00 0.00 36 1024.6
20260906170425 27 237 8.0 22.5 0.00 0.00 0.00 35 1024.6
20260906164925 27 140 8.0 17.7 0.00 0.00 0.00 35 1024.7
20260906163428 27 225 4.8 11.3 0.00 0.00 0.00 34 1024.7
20260906161926 26 279 4.8 14.5 0.00 0.00 0.00 35 1024.7
20260906160424 26 130 3.2 11.3 0.00 0.00 0.00 35 1024.7
20260906155627 26 170 0.0 11.3 0.00 0.00 0.00 35 1024.6
20260906154118 24 307 0.0 4.8 0.00 0.00 0.00 41 1024.5
20260906151925 23 341 1.6 11.3 0.00 0.00 0.00 41 1024.6
20260906150425 23 318 1.6 6.4 0.00 0.00 0.00 42 1024.5
20260906145624 22 350 0.0 6.4 0.00 0.00 0.00 45 1024.5
20260906143422 21 321 1.6 6.4 0.00 0.00 0.00 48 1024.3
20260906141922 21 29 0.0 6.4 0.00 0.00 0.00 49 1024.3
20260906140421 19 308 0.0 1.6 0.00 0.00 0.00 54 1024.2
20260906135619 19 309 0.0 6.4 0.00 0.00 0.00 53 1024.3
20260906133419 18 347 0.0 3.2 0.00 0.00 0.00 55 1024.2
20260906132623 17 347 0.0 1.6 0.00 0.00 0.00 59 1024.1
20260906130415 16 359 0.0 1.6 0.00 0.00 0.00 59 1024.0
20260906125604 16 359 0.0 0.0 0.00 0.00 0.00 59 1024.0
20260906123411 17 358 0.0 1.6 0.00 0.00 0.00 58 1024.0
20260906121909 17 358 0.0 3.2 0.00 0.00 0.00 58 1023.9
20260906120410 17 358 0.0 3.2 0.00 0.00 0.00 55 1023.9
20260906114907 17 36 0.0 3.2 0.00 0.00 0.00 55 1023.9
20260906113407 17 36 0.0 1.6 0.00 0.00 0.00 55 1023.9
20260906111906 17 35 0.0 3.2 0.00 0.00 0.00 56 1023.5
20260906110405 17 42 0.0 1.6 0.00 0.00 0.00 60 1023.4
20260906104902 17 42 0.0 0.0 0.00 0.00 0.00 60 1023.4
20260906103400 18 42 0.0 0.0 0.00 0.00 0.00 60 1023.4
20260906101855 18 42 0.0 3.2 0.00 0.00 0.00 60 1023.6
20260906101055 18 43 1.6 4.8 0.00 0.00 0.00 59 1023.9
20260906094854 19 348 0.0 3.2 0.00 0.00 0.00 58 1024.0
20260906093351 19 45 0.0 4.8 0.00 0.00 0.00 61 1023.7
20260906091849 18 341 0.0 6.4 0.00 0.00 0.00 64 1023.6
20260906090347 18 49 1.6 8.0 0.00 0.00 0.00 65 1023.5
20260906084847 18 329 1.6 8.0 0.00 0.00 0.00 66 1023.6
20260906083345 18 5 3.2 9.7 0.00 0.00 0.00 67 1023.6
20260906081842 18 319 1.6 6.4 0.00 0.00 0.00 69 1023.6
20260906080344 18 333 0.0 4.8 0.00 0.00 0.00 68 1023.7
20260906074842 18 48 1.6 4.8 0.00 0.00 0.00 68 1023.9
20260906073341 18 48 3.2 4.8 0.00 0.00 0.00 68 1023.9
20260906071839 18 46 3.2 6.4 0.00 0.00 0.00 68 1024.0
20260906071026 18 30 3.2 6.4 0.00 0.00 0.00 69 1024.1
20260906064839 18 46 1.6 6.4 0.00 0.00 0.00 70 1024.3
20260906063337 18 359 1.6 8.0 0.00 0.00 0.00 70 1024.3
20260906062539 20 114 0.0 6.4 0.00 0.00 0.00 65 1024.1
20260906061025 19 118 1.6 6.4 0.00 0.00 0.00 67 1024.0
20260906054829 19 111 0.0 1.6 0.00 0.00 0.00 69 1023.7
20260906053325 19 111 0.0 0.0 0.00 0.00 0.00 69 1023.7
20260906051825 19 111 0.0 0.0 0.00 0.00 0.00 68 1023.7
20260906050326 20 111 0.0 1.6 0.00 0.00 0.00 66 1023.9
20260906044822 21 111 0.0 1.6 0.00 0.00 0.00 64 1023.9
20260906043322 21 111 0.0 3.2 0.00 0.00 0.00 63 1024.1
20260906041821 21 115 0.0 4.8 0.00 0.00 0.00 61 1024.2
20260906040318 21 114 0.0 3.2 0.00 0.00 0.00 63 1024.1
20260906035511 21 114 0.0 1.6 0.00 0.00 0.00 62 1024.3
20260906033318 21 114 0.0 1.6 0.00 0.00 0.00 61 1024.1
20260906031813 22 115 0.0 3.2 0.00 0.00 0.00 58 1024.1
20260906030313 23 115 1.6 11.3 0.00 0.00 0.00 58 1023.9
20260906024813 23 129 3.2 9.7 0.00 0.00 0.00 56 1023.5
20260906023309 23 118 8.0 16.1 0.00 0.00 0.00 55 1023.4
20260906021807 23 92 3.2 9.7 0.00 0.00 0.00 45 1023.1
20260906020307 23 20 0.0 0.0 0.00 0.00 0.00 36 1022.5
20260906014807 24 20 0.0 3.2 0.00 0.00 0.00 33 1022.4
20260906013307 25 20 1.6 6.4 0.00 0.00 0.00 32 1022.3
20260906011806 26 44 3.2 8.0 0.00 0.00 0.00 32 1022.3
20260906010305 26 35 4.8 9.7 0.00 0.00 0.00 30 1022.3
20260906004809 27 350 4.8 11.3 0.00 0.00 0.00 29 1022.5
20260906003305 27 316 4.8 16.1 0.00 0.00 0.00 29 1022.6
20260906001806 28 312 4.8 16.1 0.00 0.00 0.00 27 1022.4
20260906000305 27 331 3.2 8.0 0.00 0.00 0.00 27 1022.4
20260905235457 27 317 0.0 3.2 0.00 0.00 0.00 30 1022.4
20260905233301 27 317 0.0 8.0 0.00 0.00 0.00 29 1022.3
20260905231800 27 292 0.0 6.4 0.00 0.00 0.00 29 1022.3
20260905230257 27 321 0.0 4.8 0.00 0.00 0.00 27 1022.3
20260905224755 27 349 3.2 14.5 0.00 0.00 0.00 27 1022.5
20260905223253 28 37 3.2 11.3 0.00 0.00 0.00 27 1022.6
20260905221753 27 340 3.2 9.7 0.00 0.00 0.00 29 1022.8
20260905220253 27 312 1.6 9.7 0.00 0.00 0.00 27 1022.8